Wind_Speed
33 33 34 33 33 34 36 39 40 42 35 28 35 36 33 31 39 45 45 40 46 51 56 66 71 73 74 64 65 59 55 62 54 52 51 41 37 36 31 28 28 26 24 22 20
33 33 32 32 32 34 35 39 40 42 36 32 30 32 41 36 33 41 48 46 45 51 53 60 68 72 74 74 73 73 61 64 59 54 51 45 40 37 35 32 29 27 25 24 21
37 36 35 35 30 32 35 36 40 40 41 32 31 33 35 30 28 34 42 48 49 49 53 56 64 71 76 77 71 71 53 60 61 57 53 48 43 40 37 33 31 29 26 24 23
42 44 44 35 32 31 34 35 37 38 38 32 29 30 27 29 26 30 33 43 49 51 54 55 58 67 77 77 80 74 69 47 61 57 56 50 46 43 40 37 32 28 27 26 25
43 43 43 36 30 29 33 34 34 36 33 35 31 31 26 21 21 25 33 35 47 50 55 55 55 61 72 75 78 73 71 70 59 59 57 53 47 50 42 37 33 27 27 27 27
39 37 36 35 32 29 30 33 33 32 31 33 32 29 26 17 19 23 26 35 40 49 51 55 57 58 66 72 76 80 74 75 44 61 60 52 53 50 46 39 32 29 28 28 29
31 32 33 34 34 31 29 34 33 33 31 31 31 28 24 21 15 22 25 32 38 44 49 53 59 60 65 69 74 79 78 75 65 45 60 52 55 49 45 41 34 30 29 30 30
32 34 35 34 34 32 32 31 37 34 33 33 32 25 26 20 18 16 22 30 35 39 43 53 58 59 63 67 70 72 76 74 64 58 58 57 46 50 45 40 35 32 31 32 31
34 34 34 35 36 35 33 32 33 36 34 33 31 30 25 22 15 15 23 23 36 35 38 51 52 62 61 66 63 69 71 70 64 54 48 56 42 50 42 38 35 33 33 33 31
38 37 37 35 36 37 36 35 34 34 34 34 31 30 26 23 21 12 27 29 35 35 44 42 50 57 59 65 68 65 67 63 58 54 41 60 46 37 36 36 35 34 34 34 33
44 44 42 41 39 38 38 38 38 37 33 33 33 29 26 20 19 18 19 27 32 38 41 42 49 59 61 58 54 54 59 55 52 52 60 41 48 32 35 33 33 34 35 34 33
49 48 48 46 45 43 41 40 40 41 35 30 32 29 30 22 17 20 22 29 36 38 46 47 56 54 48 52 52 54 53 49 55 41 43 41 34 40 36 30 31 35 36 36 35
56 55 54 54 51 46 45 42 41 43 44 29 28 32 31 25 19 17 20 25 28 34 43 48 46 48 48 51 51 50 44 50 47 42 42 35 37 37 34 32 32 34 36 36 33
63 61 58 59 58 53 48 45 44 44 49 33 29 27 28 25 16 14 17 19 25 32 38 49 51 47 51 49 44 48 45 49 54 52 48 35 34 36 36 34 34 34 36 36 34
69 66 61 60 58 55 52 47 46 45 52 37 27 25 23 24 16 11 16 20 29 32 40 42 44 44 43 41 43 46 49 46 45 50 51 45 39 38 37 37 34 34 37 37 36
70 69 67 61 57 53 51 49 47 49 59 42 35 30 27 23 20 16 14 22 31 37 42 39 43 42 45 47 48 48 49 45 43 45 49 41 43 41 41 36 37 38 38 38 38
69 65 63 60 54 50 48 49 49 56 53 43 38 29 26 26 22 21 15 17 30 39 38 37 39 43 46 48 49 50 50 48 49 49 44 44 49 41 41 36 38 38 38 39 40
70 65 58 55 51 48 47 48 58 53 51 46 44 40 32 27 26 24 20 21 26 31 34 38 39 41 44 46 47 48 49 51 51 50 46 46 50 44 44 35 36 39 39 40 40
67 62 55 52 50 50 51 53 54 52 52 52 44 45 38 34 31 31 28 22 19 26 31 37 41 42 46 49 51 53 57 52 53 49 51 50 49 46 43 40 38 39 37 38 38
60 58 58 57 56 57 58 54 55 54 55 56 51 47 44 39 37 34 36 29 25 22 30 30 39 39 44 50 54 53 50 52 53 51 48 49 50 46 42 39 39 36 38 39 40
62 63 65 65 64 64 63 60 61 58 59 60 58 53 48 49 42 41 38 37 35 30 29 30 37 41 42 50 52 55 55 54 53 52 50 48 49 44 41 37 35 35 36 37 37
68 68 71 71 70 69 66 62 64 62 62 63 63 60 55 54 51 49 43 39 40 40 35 35 41 41 41 45 50 51 52 48 48 49 50 47 47 44 39 34 34 35 34 36 38
75 74 74 76 74 72 73 75 72 70 66 65 67 67 60 61 61 54 50 48 43 46 46 43 46 44 46 46 47 45 47 45 47 48 50 45 45 44 44 38 35 34 36 38 39
80 79 73 67 67 63 68 71 66 64 65 67 69 72 68 66 65 62 57 53 49 49 51 49 50 49 45 45 49 50 48 48 48 48 46 46 45 44 42 40 35 36 39 39 39
72 67 59 54 49 48 49 52 52 54 55 57 67 73 74 71 70 70 63 58 55 51 54 55 54 54 50 52 51 50 48 46 49 43 46 41 45 44 41 38 39 41 40 39 39
56 51 43 40 39 40 40 40 44 43 45 51 59 58 70 71 71 71 66 63 58 58 54 54 58 57 56 53 53 52 51 51 48 45 48 51 47 44 42 42 43 40 40 40 39
36 39 39 31 35 36 37 40 43 44 40 44 46 44 59 63 63 59 64 63 58 58 49 54 52 55 55 55 55 56 50 50 50 49 45 46 44 43 45 43 41 42 42 40 40
Wind_Direction
309 312 315 320 325 324 328 327 330 334 342 316 310 293 284 271 258 246 246 240 225 222 220 218 217 216 214 214 216 214 221 213 212 214 215 211 215 216 219 223 229 237 239 243 247
302 304 309 315 322 322 324 328 333 334 334 330 307 289 280 287 271 252 238 229 227 219 219 217 216 216 216 210 213 223 209 217 211 211 214 213 213 214 218 224 228 236 237 238 244
304 304 306 309 318 323 322 327 330 334 329 325 314 296 291 294 269 248 238 226 220 219 218 217 215 215 216 214 229 219 225 222 211 213 212 213 213 214 220 225 230 234 236 234 239
304 305 300 302 315 322 322 325 326 333 334 328 320 312 302 301 276 248 241 229 221 215 217 217 216 214 217 216 214 218 225 220 207 210 211 211 213 214 220 225 233 233 232 230 234
305 306 311 293 307 320 322 322 323 329 340 336 330 322 309 301 276 250 240 232 223 216 216 216 215 214 217 218 221 221 224 228 230 210 211 210 212 217 220 224 231 230 229 228 227
309 311 314 308 296 314 320 320 319 323 333 336 338 330 320 302 280 265 241 233 224 221 217 217 216 215 216 217 219 223 223 227 223 218 207 208 214 217 220 225 231 228 227 225 221
314 317 321 318 318 301 314 320 317 318 319 328 335 333 333 305 282 267 254 226 226 224 220 218 214 216 216 217 219 222 224 227 231 228 201 208 215 217 220 226 230 227 225 221 218
311 315 316 318 320 316 302 313 318 316 316 318 325 328 331 318 283 266 254 231 219 220 221 218 218 218 217 216 219 221 224 226 226 231 217 205 209 217 220 226 226 225 222 219 219
302 304 308 311 312 314 312 301 310 315 314 312 318 325 321 319 298 252 233 228 209 198 217 215 219 217 217 215 217 220 222 224 224 236 228 204 204 214 221 225 225 223 220 220 221
297 298 299 301 305 309 309 306 298 306 314 309 309 316 316 316 304 269 244 233 228 231 224 216 221 219 217 214 216 219 221 223 227 232 226 213 204 201 220 222 223 220 218 219 221
297 298 298 298 298 299 303 305 303 299 302 310 307 306 307 307 291 278 237 242 229 230 219 219 226 218 212 213 214 218 224 224 223 232 236 242 215 211 221 222 223 219 219 222 223
295 297 298 297 297 296 297 301 303 300 296 300 306 299 300 292 283 269 247 249 225 221 219 222 212 198 201 206 210 212 218 217 220 228 233 207 193 217 217 220 224 222 222 224 225
290 291 294 297 295 292 292 295 298 297 296 293 300 293 289 289 283 271 243 244 230 218 214 212 195 192 196 205 205 211 214 214 217 207 195 203 210 219 218 222 226 226 227 230 232
290 291 290 292 293 293 287 288 291 293 291 297 289 293 284 280 278 267 246 229 225 208 196 194 187 196 199 202 201 207 208 207 211 216 221 219 224 230 227 225 227 229 231 234 236
285 286 288 288 289 289 286 283 286 289 283 291 293 294 294 283 265 252 239 219 220 210 204 194 189 196 199 200 201 205 213 214 216 226 236 234 239 232 232 233 231 233 235 237 240
288 288 289 287 285 282 278 278 279 280 277 280 287 285 288 283 271 249 218 219 220 210 205 198 194 195 192 196 198 202 208 214 217 221 229 234 239 233 237 231 235 235 235 239 243
287 285 284 281 278 277 273 273 274 268 275 282 281 280 276 274 265 254 239 220 221 216 202 196 196 196 195 197 198 201 205 211 215 219 225 225 235 234 235 229 237 236 238 241 245
285 283 281 278 276 274 271 269 267 270 278 278 278 273 269 270 263 248 241 220 224 220 223 200 199 198 199 199 204 203 207 214 217 221 226 228 231 236 239 235 237 239 240 244 248
284 284 282 280 277 276 273 267 267 275 274 275 270 269 262 255 262 250 242 231 220 229 232 218 209 204 204 203 206 207 211 214 220 224 231 233 235 237 237 238 236 238 242 246 249
288 286 286 283 280 277 274 268 271 273 272 269 267 262 261 253 246 252 244 235 220 223 229 239 224 213 214 211 210 212 215 219 222 226 230 234 236 234 234 239 241 242 244 248 251
290 288 287 285 281 277 275 274 269 263 260 261 262 259 254 250 244 243 246 240 228 217 228 236 238 220 216 215 215 216 214 217 221 225 230 233 237 234 239 242 247 245 245 249 251
291 289 288 284 282 279 275 270 266 261 256 255 254 253 250 247 242 238 238 241 230 230 221 233 233 237 225 223 219 221 220 223 226 226 231 235 238 242 245 250 249 248 246 246 248
289 287 285 282 280 277 272 270 265 260 255 250 248 248 242 241 241 234 231 236 231 227 228 224 231 229 232 228 223 223 221 226 230 232 231 238 239 246 251 252 248 246 246 248 251
290 287 283 281 278 275 270 266 261 257 251 243 241 239 237 234 234 231 229 229 231 230 227 226 229 231 231 233 228 225 225 226 232 235 238 240 245 249 250 253 251 247 247 249 252
291 289 284 277 271 269 263 260 256 253 249 244 235 233 233 229 228 230 225 225 226 226 228 227 225 231 227 231 230 230 229 231 235 238 242 243 245 248 248 249 249 248 250 254 257
292 285 274 271 263 256 257 250 245 249 243 237 240 235 228 228 221 226 222 224 228 227 228 228 224 225 230 231 233 233 232 232 230 229 233 234 237 240 245 244 247 250 253 257 262
288 284 280 266 257 256 251 249 241 242 234 238 228 233 225 228 220 222 222 226 229 224 223 229 229 223 228 232 232 233 231 233 233 234 235 238 240 242 243 245 247 249 254 260 265
Height
5781 5776 5771 5766 5761 5755 5748 5743 5737 5730 5722 5716 5710 5704 5700 5699 5700 5702 5708 5713 5715 5722 5729 5739 5750 5761 5767 5771 5785 5788 5792 5800 5809 5816 5819 5827 5831 5834 5839 5842 5844 5845 5848 5850 5851
5775 5770 5765 5761 5757 5750 5745 5738 5732 5725 5716 5709 5702 5696 5689 5685 5687 5692 5696 5701 5708 5715 5722 5729 5740 5752 5759 5766 5772 5771 5782 5792 5800 5807 5815 5820 5824 5829 5832 5836 5839 5841 5843 5845 5847
5771 5767 5761 5756 5751 5744 5738 5732 5726 5720 5714 5703 5694 5688 5681 5677 5676 5679 5683 5692 5698 5706 5713 5721 5728 5740 5748 5756 5751 5765 5774 5784 5794 5802 5808 5814 5819 5823 5827 5831 5833 5835 5839 5841 5843
5766 5761 5756 5750 5746 5740 5733 5727 5720 5714 5707 5701 5690 5683 5676 5670 5670 5674 5676 5683 5690 5696 5704 5712 5721 5731 5739 5748 5753 5761 5766 5770 5785 5794 5800 5806 5811 5818 5822 5825 5828 5831 5834 5836 5838
5759 5753 5749 5745 5740 5735 5729 5723 5716 5710 5704 5697 5689 5680 5673 5668 5664 5667 5671 5675 5683 5690 5697 5705 5713 5723 5731 5741 5746 5751 5760 5763 5775 5786 5792 5799 5805 5809 5816 5821 5823 5825 5828 5831 5834
5751 5747 5742 5738 5735 5730 5725 5718 5712 5706 5700 5694 5686 5678 5671 5667 5663 5662 5666 5669 5676 5682 5689 5697 5706 5714 5718 5729 5739 5744 5753 5752 5767 5774 5784 5792 5798 5804 5809 5815 5818 5820 5823 5826 5829
5744 5740 5737 5732 5728 5725 5720 5714 5707 5702 5697 5691 5684 5677 5669 5665 5660 5659 5660 5663 5669 5675 5682 5688 5693 5700 5709 5719 5727 5735 5743 5751 5760 5769 5775 5784 5792 5802 5805 5809 5812 5814 5817 5821 5825
5738 5735 5731 5727 5722 5718 5714 5709 5704 5698 5693 5687 5682 5676 5668 5662 5658 5656 5656 5657 5662 5667 5673 5677 5684 5693 5701 5708 5718 5728 5737 5746 5760 5766 5774 5775 5789 5792 5800 5803 5806 5808 5812 5816 5819
5731 5727 5724 5720 5717 5711 5707 5704 5699 5694 5688 5683 5678 5673 5668 5660 5656 5654 5657 5656 5659 5662 5667 5671 5677 5687 5693 5703 5711 5719 5733 5744 5756 5761 5767 5769 5780 5787 5792 5797 5800 5802 5806 5810 5814
5725 5721 5717 5712 5710 5706 5700 5696 5693 5689 5685 5679 5674 5670 5665 5659 5654 5650 5652 5654 5655 5657 5660 5665 5672 5681 5688 5693 5704 5720 5733 5742 5754 5762 5760 5767 5773 5779 5786 5790 5794 5796 5800 5805 5808
5717 5713 5710 5705 5702 5698 5694 5690 5687 5683 5679 5675 5671 5666 5661 5657 5652 5648 5646 5650 5651 5652 5657 5661 5666 5673 5688 5703 5714 5722 5729 5741 5749 5754 5756 5762 5768 5775 5780 5784 5788 5790 5795 5799 5803
5707 5705 5702 5698 5694 5690 5686 5681 5678 5673 5672 5671 5665 5663 5657 5653 5649 5647 5644 5646 5646 5649 5650 5651 5662 5678 5690 5697 5705 5714 5722 5735 5742 5749 5753 5757 5761 5769 5774 5778 5781 5784 5789 5792 5796
5699 5696 5692 5688 5685 5682 5678 5674 5670 5665 5660 5666 5662 5657 5653 5650 5646 5643 5639 5640 5642 5643 5645 5653 5673 5675 5683 5689 5699 5710 5722 5729 5738 5743 5745 5751 5758 5762 5768 5770 5774 5779 5783 5787 5791
5685 5682 5679 5677 5674 5672 5668 5664 5661 5657 5649 5657 5656 5653 5647 5646 5642 5639 5637 5637 5639 5643 5646 5652 5658 5669 5674 5686 5698 5708 5717 5722 5731 5738 5742 5744 5749 5755 5760 5765 5768 5772 5776 5781 5785
5671 5668 5666 5662 5663 5660 5660 5654 5651 5650 5638 5648 5649 5647 5644 5643 5642 5637 5636 5636 5642 5643 5647 5655 5657 5665 5675 5689 5695 5705 5712 5718 5725 5730 5730 5738 5741 5749 5751 5757 5763 5766 5771 5774 5778
5654 5650 5650 5648 5648 5647 5646 5644 5641 5640 5622 5639 5642 5642 5641 5639 5637 5636 5633 5636 5641 5643 5646 5649 5653 5660 5670 5678 5685 5696 5705 5712 5717 5721 5722 5733 5736 5742 5744 5752 5756 5759 5763 5767 5771
5639 5636 5633 5632 5632 5631 5632 5631 5629 5621 5623 5631 5635 5636 5635 5635 5633 5633 5631 5633 5638 5641 5644 5645 5652 5657 5665 5672 5679 5688 5697 5703 5707 5710 5721 5727 5728 5737 5738 5745 5749 5753 5756 5760 5764
5621 5620 5616 5614 5614 5615 5615 5616 5611 5615 5620 5623 5625 5627 5629 5629 5629 5629 5629 5628 5632 5638 5645 5644 5648 5653 5661 5668 5678 5686 5693 5697 5702 5708 5716 5719 5720 5728 5733 5740 5742 5746 5750 5753 5756
5600 5599 5597 5597 5598 5597 5597 5597 5601 5606 5609 5606 5615 5616 5620 5622 5625 5624 5626 5628 5628 5633 5641 5642 5644 5651 5656 5661 5669 5676 5678 5692 5693 5700 5705 5710 5717 5722 5727 5731 5735 5739 5742 5745 5748
5581 5581 5578 5578 5578 5576 5579 5585 5588 5594 5593 5593 5598 5604 5608 5613 5615 5618 5619 5625 5626 5629 5634 5640 5642 5645 5650 5655 5661 5669 5679 5682 5686 5692 5697 5702 5707 5714 5719 5724 5727 5731 5734 5737 5739
5561 5558 5556 5555 5556 5557 5562 5569 5567 5574 5575 5578 5581 5589 5596 5597 5606 5608 5613 5619 5622 5625 5627 5633 5637 5641 5643 5648 5656 5660 5665 5673 5679 5686 5690 5696 5699 5706 5711 5716 5719 5722 5725 5728 5731
5540 5538 5533 5531 5531 5531 5540 5543 5546 5552 5555 5559 5562 5570 5578 5584 5590 5596 5603 5609 5614 5618 5620 5628 5627 5635 5640 5642 5646 5653 5659 5668 5673 5680 5683 5687 5692 5697 5702 5707 5711 5715 5717 5720 5721
5516 5515 5510 5505 5506 5504 5507 5510 5513 5525 5531 5536 5541 5548 5559 5566 5573 5583 5592 5596 5603 5606 5611 5616 5618 5623 5628 5634 5637 5644 5654 5662 5665 5669 5674 5681 5688 5689 5693 5698 5702 5705 5708 5710 5712
5487 5484 5484 5480 5478 5477 5477 5483 5488 5493 5502 5509 5518 5522 5533 5545 5557 5564 5577 5585 5592 5596 5600 5602 5609 5615 5624 5635 5635 5638 5645 5651 5655 5661 5670 5673 5678 5681 5685 5688 5693 5696 5698 5701 5703
5460 5457 5453 5457 5457 5457 5457 5461 5465 5471 5477 5488 5491 5497 5509 5521 5536 5546 5561 5571 5578 5584 5587 5592 5598 5607 5615 5617 5625 5632 5638 5643 5648 5660 5657 5672 5670 5673 5677 5679 5681 5685 5689 5692 5693
5440 5437 5438 5440 5441 5441 5443 5449 5451 5456 5459 5463 5469 5483 5489 5496 5517 5531 5544 5555 5564 5571 5576 5582 5587 5593 5603 5610 5615 5620 5626 5632 5640 5644 5647 5652 5659 5662 5666 5669 5672 5676 5679 5680 5682
5427 5425 5420 5429 5427 5428 5433 5432 5437 5443 5451 5453 5457 5465 5470 5484 5505 5516 5526 5539 5547 5556 5563 5570 5578 5584 5590 5598 5602 5605 5619 5625 5632 5635 5643 5645 5652 5655 5658 5660 5663 5666 5668 5671 5672